Temps Etape 1 et Heures de D├ępart Etape 2  
 
HeureConducteurAsaCoéquipierVoitureGroupeClassePénaTempsEcarts
10h501MICHEL SylvainSAVOIEDEGOUT JérômeSKODA Fabia R5RR5 0:47:41,20 
10h522DURBEC ThibaultVARRENUCCI Jacques-JulienCITROËN DS3 WRCA8W 0:47:49,7000:08,50
10h546ROSSEL YohanALESFULCRAND BenoîtCITROËN C3 R5RR5 0:48:01,4000:20,20
10h563BAUD LionelMONT-BLANCBAUD LucieCITROËN DS3 WRCA8W 0:48:25,7000:44,50
10h585WAGNER WilliamMIRECOURTMILLET KévinVOLKSWAGEN Polo GTIRR5 0:48:33,8000:52,60
11h007MARGAILLAN MatthieuHAUTE PROVENCEMARGAILLAN MathildeSKODA Fabia R5RR5 0:48:38,000:56,80
11h0210FALCO Jean-MarcGRASSEBOUERI JonathanSKODA Fabia R5RR5 0:48:57,6001:16,40
11h044TIRABASSI BriceSAINT-RAPHAËLDECLERCK LoïcHyundai i20 R5RR5 0:49:21,3001:40,10
11h068BAUDOIN ThomasGRASSELETOURNEAU LaraCITROËN C3 R5RR520s0:49:26,9001:45,70
11h089AMOURETTE MarcVAL DE BRESLEGAUDUIN AnaïsPEUGEOT 208 T16RR5 0:49:33,4001:52,20
11h1021DUBERT VincentL'AC DE CANNESCORIA AlexandreFIAT 500 XRR4 0:50:36,7002:55,50
11h1211DINKEL DominikAllemagneFURST ChristinaHyundai i20 R5RR5 0:50:45,4003:04,20
11h1441LAMOURET PaulCASTINEDELPECH FlorentMITSUBISHI Lancer Evo9FA8 0:50:58,2003:17,0
11h1618MORDACQ ArnaudDETROITVAUCLARE FrédéricMITSUBISHI Lancer Evo9FN4 0:51:10,4003:29,20
11h1812RAOUX Jean-MichelRESTONICAMAGAT LaurentSKODA Fabia R5RR5 0:51:15,6003:34,40
11h2015DEJEAN PatrickSAINT-AFFRIQUECURRAT LionelFORD Fiesta R5RR5 0:52:14,1004:32,90
11h2223FRANCESCHI Jean-BaptisteGRASSEGORGUILO AnthonyPEUGEOT 208 VTIRR2 0:52:37,4004:56,20
11h2445MARTI ChristianROUTE D'ARGENTLAVIALE Jean-MarcMITSUBISHI Lancer Evo9FA8 0:52:44,6005:03,40
11h2619FERAUD CyrilleGRASSEDUCHEMIN AymericCITROËN C4 WRCFA8W 0:52:46,3005:05,10
11h2759DESANGLES YanisROUTE D'ARGENTTHERON NicolasSUBARU Impreza StiRR4 0:52:47,9005:06,70
11h2868MOREL Jean-LucMEDITERRANÉEGIDEL PhilippeSUBARU Impreza WRXFN4 0:52:49,2005:08,0
11h2929MAGNOU PatrickNICEBELHACENE MatthieuPEUGEOT 208 VTIRR2 0:52:49,8005:08,60
11h3025BLANC François-XavierROUTE D'ARGENTDE TURCKHEIM GillesPEUGEOT 208 VTIRR2 0:52:58,4005:17,20
11h3128FOTIA AnthonyBÂTIMENT ET TRAVAUX PUBLICSSIRUGUE DidierPEUGEOT 208 VTIRR2 0:53:01,4005:20,20
11h3226PINHEIRO Karl-AlexandreBRESSE BUGEYLE FLOCH FranckPEUGEOT 208 VTIRR2 0:53:26,1005:44,90
11h3314MANZAGOL Jean-MarcBASTIAISEPATRONE EtienneFORD Fiesta R5RR5 0:53:37,005:55,80
11h3427FRANCESCHI MathieuGRASSEMANZO BenoîtPEUGEOT 208 VTIRR2 0:53:43,1006:01,90
11h3517PRIOLO LaurentVENCE CITÉ DES ARTSPRIOLO CindyFORD Fiesta R5RR5 0:53:50,2006:09,0
11h3670LOPEZ YannickISTRESLOPEZ BriceSUBARU Impreza WRXFN4 0:53:50,5006:09,30
11h3722RAYNAUD GabrielBASTIAISERAYNAUD LucieVOLKSWAGEN Polo S2000FA7S 0:54:12,2006:31,0
11h3843TARDY GuillaumeFOREZTARDY VincentSUBARU Impreza WRXFA8 0:54:15,7006:34,50
11h3999MUNSTER GrégoireBelgiqueMUNSTER CharlesOPEL Adam RallyRR2 0:54:23,7006:42,50
11h4060GENESCA Arnaud"66"GOMBERT MathieuSUBARU Impreza StiRR4 0:54:24,1006:42,90
11h4136VARGAS JonathanONDAINEBRION GeoffreyPEUGEOT 208 VTIRR2 0:54:24,3006:43,10
11h4230ROSSEL LéoALESMAURIN MathieuPEUGEOT 208 VTIRR2 0:54:45,3007:04,10
11h4333LANQUETIN SébastienSEQUANIEJOLY MaryPEUGEOT 208 VTIRR2 0:54:54,5007:13,30
11h4420GUILLOT ClisthenRESTONICAMENCHINI MarcoFORD Fiesta WRCA8W 0:55:03,4007:22,20
11h4558SALIN DanielROUTE D'ARGENTSALIN BrigitteSUBARU Impreza WRXRR41m0s0:55:27,7007:46,50
11h4693CONDAMINES FlorianSAINT-AFFRIQUEJOLÉ DamienCITROËN Saxo T4FA6K 0:55:41,3008:00,10
11h4765CRÉPY MickaëlVILLEMOMBLENEYRET-GIGOT BenoîtRENAULT Clio R3RR3 0:55:44,1008:02,90
11h4863FRANCE JulienCASTINEHADDAD MarcCITROËN DS3 R3RR3 0:55:45,6008:04,40
11h4950BLANCK LionelROUTE D'ARGENTBLANCK ArnaudMITSUBISHI Lancer Evo9FA8 0:55:50,1008:08,90
11h5034ROUSSELIN JohannVAL DE BRESLEMALFOY AndyPEUGEOT 208 VTIRR2 0:56:04,2008:23,0
11h5156MORDACQ LaurentGRASSEMORTIER HervéMITSUBISHI Lancer Evo9RR430s0:56:14,8008:33,60
11h5239VENTURINI ThierryPLAINE DE L'ILLDREYER BénédictePEUGEOT 208 VTIRR2 0:56:40,6008:59,40
11h5337POIZOT ThibautALPESGRAND MarionPEUGEOT 208 VTIRR2 0:56:41,4009:00,20
11h54104BULLY ClémentJURADENUZIERE AlexandreFORD Fiesta R2RR2 0:56:48,2009:07,0
11h5553CAMBOULAS BrunoINGRESGUILLOT PierreSUBARU Impreza StiFA8 0:56:51,1009:09,90
11h5646PUEL GérardROUTE D'ARGENTPUEL CarolineMITSUBISHI Lancer Evo8FA8 0:56:53,7009:12,50
11h5790BRECHET JulienMEDITERRANÉEESCARTEFIGUE ThomasCITROËN Saxo T4FA6K 0:56:57,9009:16,70
11h5864BOUCHET Guillaume"73"LAPERRIERE ChristopheRENAULT Clio R3RR3 0:56:58,4009:17,20
11h5992EYDOUX LaurentROQUE ET DURANCEFRISON FlorianCITROËN Saxo T4FA6K 0:59:52,2012:11,0
12h0016CHAPUS SergeVIGNOBLE TARNAISFAVREAU MathieuSKODA Fabia R5RR5 0:57:04,6009:23,40
12h01126SABATIER FlorentHAUTE VALLÉE DE LA LOIREPELAMOURGUES MarinePEUGEOT 106 S16FA6 0:57:08,4009:27,20
12h0294THEROND NicolasCASTINECOURTINE PhilippeCITROËN Saxo T4FA6K 0:57:13,1009:31,90
12h0335DELAGNE DorianROUTE D'ARGENTSALVA ThierryPEUGEOT 208 VTIRR240s0:57:19,009:37,80
12h0481GRANSAGNE AlexandreROUTE D'ARGENTBOUDOU LudovicRENAULT Clio RSF200014 0:57:21,4009:40,20
12h0579GINIER CédricLOZEREPALMER CamillePEUGEOT 206 RcF200014 0:58:35,6010:54,40
12h0671DEJEAN ArnaudSAINT-AFFRIQUEGARDES RomainSUBARU Impreza StiFN4 0:59:07,5011:26,30
12h0796COMBE FabienDÔME FOREZCOMBE LudovicPEUGEOT 206 XSFA6K 0:59:08,6011:27,40
12h08109FRELAUT YohannCASTINECASSAGNADE PascalPEUGEOT 206 RcFA7 0:59:19,011:37,80
12h0938BAUD SébastienMONT-BLANCCRAEN FabienPEUGEOT 208 VTIRR2 0:59:35,9011:54,70
12h1051JARLAN MaximeROUTE D'ARGENTJARLAN ArnaudSUBARU ImprezaFA8 0:59:41,8012:00,60
12h1172CHASSANIOL JackyCASTINETROMEL FrankMITSUBISHI Lancer Evo9FN4 0:59:46,6012:05,40
12h12117NICOULAU FlorianROUTE D'ARGENTSOULIE AnthonyCITROËN Saxo VTSF200013 0:59:49,5012:08,30
12h1374ECK Jean-LucSAINT-RAPHAËLECK AurélienSUBARU Impreza WRXFN4 1:00:01,8012:20,60
12h1476CAMPAGNOLI GabrieleItalieARENA NicolaSUBARU Impreza StiFN4 4:39:03,0Rallye 2
12h15110BELLIARDO DanielROUTE D'ARGENTAMALBERTI CédricPEUGEOT 306 S16FN310s1:00:51,1013:09,90
12h16128RALITE ChristopheROUTE D'ARGENTABBAL MariePEUGEOT 106 S16FA6 1:01:09,3013:28,10
12h17124RAKOTOMALALA AndryMadagascarPOMAREDE MarcPEUGEOT 106 RallyeFA6 1:01:09,5013:28,30
12h18107PANTEL GéraldROQUE ET DURANCEPANTEL ArnaudPEUGEOT 306 S16FA7 1:01:48,1014:06,90
12h19121TAPADA JérémyROUTE D'ARGENTCAYON GENEBRIERES PaulPEUGEOT 106 RallyeF200013 1:01:59,3014:18,10
12h20105ROCARD ChristopheLANGRESMASSON PascalPEUGEOT 208 VTIRR2 1:02:05,7014:24,50
12h21131VUITTENEZ VictorienSEQUANIECOTE COLISSON MaximePEUGEOT 106 XSIFN1 1:02:16,5014:35,30
12h2297BRENIAUX SébastienJURAJACQUES AnthonyPEUGEOT 206 XSFA6K 1:02:36,014:54,80
12h23108VOISIN LionelCIGALOISEHONORÉ NicolasPEUGEOT 206 GtFA7 1:02:39,8014:58,60
12h2449MAS PaulINGRESBIAGETTI LoanMITSUBISHI Lancer Evo9FA8 1:02:40,7014:59,50
12h25125GAGNEUR HervéJURABRUCHARD BenoîtCITROËN Saxo VTSFA6 1:02:43,6015:02,40
12h2632LEZEAU RomualdSPORT AUTO OCEANREAULT VincentPEUGEOT 208 VTIRR2 1:02:45,1015:03,90
12h2744PANAGIOTIS YannickVAUCLUSIENPANAGIOTIS ValérieB.M.W. 325iXFA8 1:02:50,5015:09,30
12h28123VERRY VanessaMAINE-BRETAGNEDELAIRE EmmanuellePEUGEOT 208 VTIRR210s1:03:20,6015:39,40
12h29103GELLUSSEAU LucSPORT AUTO OCEANGELLUSSEAU AntoinePEUGEOT 208 VTIRR2 1:03:52,2016:11,0
12h3024ASTIER LoïcSAINT-RAPHAËLDINI GilbertPEUGEOT 208 VTIRR2 4:03:10,10Rallye 2
12h3131PORTAL KévinSAINT-RAPHAËLCHIAPPE PatrickPEUGEOT 208 VTIRR2 4:12:45,0Rallye 2
12h32100PERRIN FrédéricROUTE D'ARGENTBAUMET EddyPEUGEOT 208 VTIRR2 4:50:12,40Rallye 2
12h33102GOUY QuentinROUTE D'ARGENTTHILLIEZ QuentinCITROËN C2 R2RR2 5:01:47,40Rallye 2
12h3486ROBLIN PascalMEDITERRANÉEPARTY FrédéricPEUGEOT 205 GTIF20001410s1:04:21,8016:40,60
12h3598MARGAILLAN HugoSAINT-RAPHAËLDALMASSO CharlotteFORD Fiesta R2JRR2J 4:55:38,10Rallye 2
12h36113PERROT ThierryAUGIASGUIARDEL ThibautRENAULT Clio RSFN3 1:04:30,2016:49,0
12h3789TIRAT ChristopheVAUCLUSIENTAMISIER LaurentRENAULT Clio RSF20001410s1:04:34,016:52,80
12h38122BRENGUES Jean-MarieSAINT-AFFRIQUEBRENGUES MélaniePEUGEOT 205 GTIF200013 1:04:48,8017:07,60
12h39115VANTILLARD Jean-MarcROUTE D'ARGENTDARRAS PascalinePEUGEOT 205 GTIF200013 5:01:47,40Rallye 2
12h40116CAYLA CorentinROUTE D'ARGENTPERRIN SidoineCITROËN C2F200013 3:58:06,60Rallye 2
12h41118VAYSSE AdrienROUTE D'ARGENTLAURENS ClémentPEUGEOT 106 S16F200013 5:01:47,40Rallye 2
12h42119CHABBERT LudovicROUTE D'ARGENTCHABBERT ThomasPEUGEOT 206 XSF200013 4:51:30,90Rallye 2
12h43120MARTIN GaryROUTE D'ARGENTFACCIO JuliePEUGEOT 106 XSIF200013 5:01:47,40Rallye 2
12h44130MOUGIN JulesLANGRESCHARIOT RenéSUZUKI Swift SportFN2 1:04:57,9017:16,70
12h45129FRANÇOIS LéaLANGRESBENOIT AdelinePEUGEOT 106 S16FN2 4:42:54,0Rallye 2
12h4654GLEY Jean-PierreLOZERELARGUILLE IsabelleSUBARU Impreza GTFA8 1:06:07,9018:26,70
12h4787PIAGNO MarcROUTE D'ARGENTGILHODES Anne-IsabellePEUGEOT 306 S16F200014 5:01:47,40Rallye 2
12h4888TAMISIER SylvainMEDITERRANÉEVANDERSTEEN GuillaumeRENAULT Clio RSF2000142m0s1:07:21,6019:40,40
12h4952CHASSANIOL AdrienCASTINEGIRAUD GrégoryMITSUBISHI Lancer Evo4FA8 4:13:58,10Rallye 2
12h5091BIAU Jean-LucSAINT-AFFRIQUEBROLIQUET EricPEUGEOT 206 XSFA6K 1:08:24,7020:43,50
12h51133HUC VincentMONTS D'AUTANRUFFEL SébastienPEUGEOT 106 XSIFN1 1:09:19,5021:38,30
12h52112MAZENQ PascalROUTE D'ARGENTCOURNEDE ChristopheFORD Fiesta STFN32m0s1:22:44,6035:03,40